Wind_Speed
81 81 81 81 81 82 83 83 84 84 85 86 87 88 90 91 92 93 93 94 94 95 96 97 97 98 98 99 99 100 100 100 100 101 102 102 102 103 104 105 106 106
84 84 84 84 85 85 85 85 85 86 86 87 88 89 90 92 93 93 94 95 96 96 98 99 99 100 101 101 101 101 101 101 101 102 103 103 103 104 104 105 107 107
90 89 89 89 89 89 89 89 89 89 89 90 91 91 92 93 94 94 95 96 97 98 99 100 101 101 102 103 103 103 103 103 103 104 105 104 105 105 106 107 108 109
95 95 94 93 93 92 92 93 93 93 94 93 94 94 95 95 96 96 97 98 99 99 100 101 102 102 103 104 105 105 105 105 105 106 106 106 106 107 108 109 110 111
99 100 100 100 98 97 97 97 97 97 97 97 97 98 98 99 99 99 100 100 101 102 102 103 104 105 105 106 107 107 107 107 108 109 109 108 109 109 110 111 112 113
101 103 104 105 105 104 103 102 102 102 101 101 101 101 102 102 102 102 103 103 104 104 105 106 107 108 109 110 111 111 111 111 111 112 112 111 111 112 113 114 115 116
101 103 105 107 108 109 109 108 108 108 107 107 106 106 106 106 106 106 106 106 107 107 108 108 109 110 112 113 114 114 114 114 115 115 115 115 115 115 116 117 118 118
103 104 105 107 109 111 112 112 113 113 113 112 112 112 111 111 110 110 110 110 110 110 111 111 112 113 114 115 116 116 117 117 118 118 118 118 118 118 119 120 121 121
105 106 107 108 110 111 113 114 115 116 116 116 116 116 116 115 115 115 114 114 114 114 114 115 115 116 117 117 118 118 119 119 120 120 120 120 121 121 122 123 124 124
105 106 107 109 111 112 114 115 116 118 118 119 119 119 119 119 118 118 118 118 118 118 118 118 118 118 119 119 120 120 121 121 122 122 123 123 124 124 125 126 126 126
105 106 107 108 110 111 113 114 116 117 118 119 119 120 120 121 121 121 121 121 121 121 121 121 121 121 122 122 122 123 123 124 124 125 126 126 127 127 128 128 128 128
105 107 107 108 110 111 112 113 114 116 117 118 119 119 120 120 121 122 122 123 123 124 124 124 124 125 125 125 125 125 126 127 127 128 128 129 129 129 130 130 131 131
105 106 108 109 110 111 112 113 114 115 116 117 118 118 119 120 120 121 122 124 124 125 126 127 127 127 128 128 128 128 128 129 129 130 131 131 131 132 132 133 133 133
103 105 106 107 109 110 111 113 114 115 116 117 118 118 119 120 120 122 122 123 124 125 127 127 128 129 129 130 130 130 130 130 131 132 132 133 133 134 134 135 135 135
103 103 104 105 106 107 109 111 112 114 115 117 118 119 120 120 121 122 123 124 125 125 126 127 128 129 130 131 131 131 132 132 132 133 134 134 135 135 136 136 136 137
106 105 105 105 105 106 107 108 110 111 113 114 116 117 118 120 121 122 123 124 124 125 126 127 128 128 129 130 131 132 132 133 133 134 134 135 135 135 136 137 137 138
108 108 108 108 108 108 108 108 109 110 111 112 113 115 116 117 118 119 121 122 123 124 124 125 126 127 127 128 129 130 131 132 132 133 134 134 135 135 135 136 137 137
107 107 108 108 109 109 110 110 110 111 111 112 113 113 114 115 116 116 117 118 119 119 120 121 121 123 123 124 125 126 127 128 129 130 130 131 132 133 133 134 135 135
105 105 105 106 107 107 108 109 109 110 110 111 111 112 113 113 114 114 114 114 115 115 115 116 117 117 118 119 120 121 122 123 123 124 125 126 127 128 129 130 131 131
102 102 102 103 103 104 105 106 106 107 107 108 108 109 109 109 109 110 110 110 110 111 111 112 113 113 114 115 115 116 117 118 119 119 120 121 122 123 124 125 125 126
99 99 99 100 100 101 102 103 103 104 104 104 104 104 104 104 104 104 104 105 105 106 106 107 108 109 110 111 111 112 113 114 114 115 116 116 117 117 118 119 120 121
96 96 97 97 98 99 100 100 100 100 100 99 99 99 99 99 99 99 99 100 101 101 102 103 103 104 105 106 107 108 109 109 110 111 112 113 113 113 114 114 115 116
91 91 92 93 94 95 96 96 96 96 96 96 96 96 96 95 95 95 95 95 96 97 97 98 99 99 100 102 103 103 104 105 105 107 107 108 108 109 109 109 109 110
87 88 89 90 91 91 91 91 91 91 92 92 92 92 92 92 92 92 92 91 92 92 93 93 94 95 96 97 98 98 99 99 100 101 101 102 102 103 103 103 103 104
84 85 87 88 88 88 87 87 87 88 88 88 88 88 88 88 88 89 89 88 88 88 89 90 91 92 92 93 94 94 94 94 95 96 96 97 97 97 98 98 99 99
80 81 82 84 85 85 85 84 84 84 84 84 84 84 84 84 85 85 85 85 85 85 86 86 87 88 89 90 90 91 91 91 91 91 92 92 92 93 93 94 95 95
Wind_Direction
272 272 271 271 271 270 270 270 270 270 269 269 269 269 268 268 269 269 269 269 269 269 269 268 268 268 267 267 267 267 267 267 267 268 268 268 268 268 269 269 269 269
273 272 271 271 270 270 270 269 270 270 269 269 269 268 268 268 268 268 268 268 269 269 269 269 269 269 269 269 268 268 268 268 268 268 268 268 268 269 269 269 269 269
275 274 272 271 271 270 270 269 269 268 268 268 268 268 268 268 268 268 268 268 268 268 268 268 268 269 269 269 269 269 269 269 269 268 268 269 269 269 269 269 269 269
276 275 274 272 271 270 270 269 269 268 268 268 268 268 267 268 268 267 267 268 268 268 268 268 268 269 269 269 269 268 268 268 268 268 268 268 268 268 268 268 268 268
275 276 275 275 273 272 271 270 269 269 268 268 267 267 267 268 268 268 268 268 268 268 268 268 268 268 268 268 268 268 268 268 268 268 267 267 267 268 268 268 268 268
273 274 275 275 275 274 273 272 271 270 269 268 268 267 267 267 267 267 267 267 267 267 267 267 267 268 268 268 268 268 268 268 268 268 268 268 267 267 268 268 268 268
268 269 270 271 272 273 273 272 272 271 270 270 269 268 268 267 267 267 266 266 266 266 266 266 266 267 267 267 267 267 267 267 268 268 268 268 268 267 268 268 268 268
265 265 265 266 267 268 269 269 270 270 269 269 269 269 268 268 267 267 266 266 266 266 265 265 265 265 266 266 266 267 267 267 267 267 268 268 268 268 268 268 268 268
265 265 264 264 264 264 265 266 266 267 267 267 267 267 267 267 267 267 267 267 266 266 266 265 265 265 265 265 266 266 266 267 267 267 268 268 268 268 268 268 268 268
267 266 265 265 264 264 264 264 264 264 265 265 265 266 266 266 266 267 266 266 266 266 266 266 266 266 266 266 266 266 266 266 267 267 267 267 267 267 268 268 268 268
268 268 267 266 266 266 265 265 265 265 265 265 265 266 266 266 266 266 266 266 266 266 266 265 265 265 265 265 265 266 266 266 266 266 266 266 267 267 267 268 268 268
269 268 268 267 267 267 266 266 266 266 266 266 266 266 266 266 266 266 266 266 266 266 265 265 265 265 265 264 264 265 265 265 265 266 266 266 266 267 267 267 267 268
270 269 268 268 267 267 267 267 267 267 267 267 267 267 267 267 267 267 266 266 266 266 266 265 265 265 265 264 264 264 264 264 265 265 265 266 266 266 266 267 267 267
270 270 269 268 268 267 267 267 267 267 267 267 267 267 267 267 267 267 267 267 267 266 266 266 266 265 265 265 265 264 264 264 264 264 265 265 265 266 266 266 267 267
274 272 271 270 269 268 267 267 266 266 266 266 267 267 267 267 268 268 268 268 268 268 267 267 267 266 266 266 266 265 265 265 264 264 264 265 265 265 266 266 266 267
276 275 274 273 272 271 270 269 268 267 267 267 266 266 266 267 267 267 267 268 268 268 268 268 268 267 267 267 267 266 266 266 265 265 265 265 266 266 266 266 267 267
276 276 276 275 275 274 273 272 272 271 270 269 269 268 268 268 267 267 267 267 267 267 267 267 267 267 267 267 267 267 266 266 266 266 266 266 266 266 267 267 267 267
275 275 275 275 275 274 274 274 273 273 273 272 272 271 271 270 270 270 269 269 269 268 268 268 267 267 267 267 267 266 266 266 266 266 266 266 266 266 266 266 266 267
275 275 274 274 274 274 274 274 273 273 273 273 273 273 273 272 272 272 272 271 271 270 270 270 269 268 268 268 267 267 266 266 265 265 265 265 265 265 265 265 266 266
276 276 275 275 275 275 274 274 274 274 274 274 273 273 273 273 273 273 272 272 271 271 271 270 270 269 269 268 268 268 267 267 267 266 266 266 266 266 266 266 266 266
278 277 277 277 276 276 276 276 275 275 275 275 275 275 274 274 274 273 272 272 271 271 270 270 269 269 269 268 268 268 268 268 268 267 267 267 267 266 267 267 267 267
278 278 278 278 277 277 277 277 277 277 277 277 276 276 276 275 274 273 273 272 272 271 271 270 270 269 269 269 269 269 269 268 268 268 268 268 268 268 268 268 268 268
277 277 277 277 277 277 277 277 278 278 278 277 277 276 276 275 274 274 273 273 272 272 272 271 271 271 270 270 270 270 269 269 269 269 269 269 269 269 269 269 269 269
279 279 279 278 278 278 278 277 277 277 276 276 276 275 275 275 275 275 274 274 273 273 273 273 272 272 271 271 271 270 270 270 270 270 270 270 270 270 271 271 271 271
280 280 279 279 279 279 278 277 276 276 275 275 275 275 275 275 275 275 275 275 274 274 273 273 273 273 272 272 272 271 271 271 271 271 271 271 271 271 271 271 271 271
280 280 279 278 278 278 278 277 277 276 276 276 276 276 276 276 276 276 276 275 275 274 274 273 273 273 272 272 272 272 272 272 272 271 271 271 271 271 271 270 270 270
Height
10313 10312 10312 10311 10310 10308 10306 10304 10303 10303 10302 10299 10297 10295 10292 10290 10287 10286 10286 10285 10284 10284 10282 10280 10280 10279 10278 10277 10276 10276 10276 10276 10275 10273 10271 10271 10271 10268 10268 10267 10264 10263
10300 10299 10298 10297 10296 10294 10292 10291 10290 10289 10288 10285 10284 10282 10279 10277 10275 10274 10273 10271 10270 10269 10267 10266 10265 10263 10262 10262 10261 10261 10262 10261 10260 10258 10256 10257 10256 10254 10254 10252 10249 10248
10283 10283 10282 10282 10281 10279 10277 10277 10276 10274 10273 10271 10270 10268 10266 10264 10262 10261 10259 10258 10256 10255 10253 10251 10250 10249 10247 10246 10245 10245 10246 10245 10245 10242 10240 10242 10241 10239 10239 10236 10234 10233
10266 10265 10265 10265 10265 10264 10262 10261 10260 10258 10257 10257 10255 10253 10252 10250 10248 10247 10245 10243 10242 10240 10238 10237 10236 10234 10232 10231 10229 10229 10230 10229 10229 10226 10225 10228 10226 10223 10223 10220 10219 10219
10249 10247 10246 10245 10246 10246 10245 10245 10244 10242 10241 10241 10239 10237 10236 10235 10233 10232 10230 10229 10227 10226 10224 10222 10221 10218 10216 10215 10212 10213 10214 10213 10212 10209 10209 10212 10210 10207 10207 10204 10204 10204
10235 10232 10229 10227 10226 10226 10226 10226 10225 10224 10224 10223 10222 10221 10219 10218 10217 10216 10215 10214 10212 10211 10210 10207 10205 10203 10200 10198 10196 10197 10197 10196 10195 10192 10193 10196 10194 10191 10191 10188 10188 10187
10221 10219 10216 10213 10210 10208 10207 10206 10206 10205 10204 10204 10204 10203 10201 10200 10200 10199 10198 10197 10196 10195 10194 10192 10190 10188 10185 10182 10180 10181 10181 10179 10178 10176 10176 10179 10176 10174 10175 10172 10171 10170
10203 10202 10200 10198 10195 10192 10190 10188 10187 10186 10185 10185 10184 10183 10182 10182 10182 10181 10180 10179 10179 10179 10178 10176 10174 10172 10169 10166 10165 10165 10164 10162 10161 10159 10159 10161 10159 10158 10158 10154 10152 10153
10185 10183 10181 10179 10177 10175 10173 10170 10168 10167 10165 10165 10165 10164 10163 10162 10162 10161 10161 10160 10160 10160 10159 10157 10156 10155 10152 10150 10150 10149 10147 10146 10144 10142 10142 10142 10141 10140 10139 10136 10134 10136
10167 10165 10163 10161 10159 10157 10154 10152 10150 10148 10147 10146 10145 10145 10144 10143 10142 10142 10141 10141 10140 10140 10139 10138 10138 10136 10134 10133 10133 10132 10130 10128 10127 10125 10124 10124 10123 10122 10120 10118 10116 10119
10148 10147 10145 10143 10141 10139 10137 10135 10133 10131 10129 10128 10127 10126 10125 10124 10123 10122 10121 10121 10120 10120 10119 10118 10118 10117 10116 10115 10114 10112 10111 10110 10108 10106 10105 10105 10104 10103 10102 10100 10098 10100
10130 10128 10126 10125 10123 10121 10119 10117 10115 10114 10112 10110 10109 10108 10107 10106 10105 10103 10102 10101 10100 10099 10098 10098 10097 10097 10096 10096 10095 10093 10092 10091 10090 10088 10086 10086 10085 10085 10084 10082 10080 10082
10111 10109 10107 10106 10104 10103 10102 10100 10098 10096 10094 10092 10091 10090 10088 10087 10086 10084 10083 10081 10080 10079 10078 10077 10077 10076 10075 10075 10075 10075 10073 10072 10071 10069 10068 10067 10066 10066 10065 10063 10062 10062
10093 10091 10089 10087 10086 10084 10083 10081 10079 10078 10076 10074 10073 10071 10070 10068 10067 10065 10064 10062 10060 10059 10058 10057 10056 10055 10054 10053 10054 10054 10053 10052 10052 10050 10049 10048 10047 10046 10045 10044 10043 10043
10071 10070 10069 10067 10066 10065 10064 10062 10060 10059 10057 10056 10054 10053 10051 10049 10047 10046 10045 10043 10041 10040 10038 10037 10036 10035 10034 10033 10032 10032 10031 10031 10031 10030 10029 10028 10028 10027 10026 10025 10024 10023
10049 10048 10046 10045 10044 10043 10042 10041 10040 10039 10037 10036 10035 10034 10032 10030 10029 10027 10026 10024 10023 10021 10019 10017 10016 10015 10014 10013 10012 10011 10010 10010 10010 10009 10009 10008 10008 10008 10007 10006 10004 10003
10030 10028 10026 10024 10022 10021 10020 10018 10018 10016 10015 10014 10013 10012 10011 10010 10009 10008 10006 10005 10004 10002 10000 9998 9996 9995 9994 9993 9991 9990 9989 9989 9989 9988 9988 9987 9988 9988 9988 9987 9985 9983
10013 10011 10008 10006 10003 10001 9999 9998 9996 9995 9994 9993 9991 9990 9989 9987 9986 9986 9984 9983 9982 9982 9980 9979 9977 9975 9973 9972 9971 9970 9968 9968 9968 9968 9968 9968 9968 9967 9967 9967 9965 9964
9995 9993 9991 9988 9986 9984 9981 9979 9978 9976 9974 9973 9971 9969 9968 9966 9965 9964 9963 9961 9960 9960 9958 9957 9956 9954 9952 9951 9949 9948 9946 9945 9946 9947 9948 9948 9947 9946 9946 9945 9945 9944
9977 9975 9973 9970 9968 9965 9963 9960 9959 9957 9955 9954 9953 9951 9949 9947 9946 9944 9943 9941 9940 9939 9938 9936 9934 9933 9931 9930 9928 9926 9924 9924 9925 9926 9926 9926 9926 9925 9924 9924 9923 9922
9958 9956 9954 9952 9949 9946 9944 9941 9939 9938 9936 9935 9933 9931 9930 9928 9927 9925 9923 9922 9920 9919 9918 9916 9914 9913 9911 9909 9908 9906 9905 9905 9905 9905 9904 9904 9904 9904 9904 9903 9902 9901
9941 9939 9937 9934 9931 9928 9925 9923 9921 9919 9918 9917 9915 9912 9911 9909 9907 9906 9904 9903 9901 9900 9899 9897 9895 9894 9892 9891 9889 9887 9887 9888 9887 9885 9884 9884 9884 9884 9884 9884 9883 9882
9927 9925 9922 9918 9915 9912 9909 9907 9905 9903 9901 9899 9897 9894 9892 9891 9889 9887 9886 9886 9884 9882 9881 9879 9877 9876 9875 9873 9871 9870 9869 9870 9869 9867 9866 9865 9865 9865 9865 9865 9865 9864
9911 9909 9906 9902 9899 9897 9894 9892 9890 9887 9885 9883 9881 9878 9876 9874 9872 9870 9869 9869 9868 9866 9865 9862 9860 9858 9857 9855 9853 9852 9852 9852 9851 9849 9848 9848 9847 9847 9847 9847 9846 9846
9897 9894 9890 9887 9884 9881 9879 9877 9875 9872 9869 9867 9865 9864 9862 9860 9858 9855 9854 9853 9853 9851 9850 9847 9844 9841 9839 9838 9836 9835 9835 9836 9835 9834 9833 9832 9832 9832 9831 9830 9828 9827
9883 9880 9876 9873 9870 9866 9864 9862 9860 9858 9855 9853 9850 9849 9848 9846 9844 9842 9839 9838 9837 9836 9834 9832 9830 9826 9824 9822 9822 9820 9820 9820 9820 9819 9818 9817 9817 9816 9815 9812 9810 9809